Location: Newark
(48.2308°N, 120.8549°W)
Time: 23:07:32
(UTC+00:00)

Transit 2A Rocket - Pass Details

Date: 29 May 2020
Orbit: 584 x 919 km, 66.7° (Epoch: 10 July)

Event Time Altitude Azimuth Distance (km) Brightness Sun altitude
Rises 08:35:57 0° 253° (WSW) 3,140 - -19.6°
Exits shadow 08:37:05 - 258° (WSW) 2,752 7.7 -19.6°
Reaches altitude 10° 08:38:33 10° 266° (W) 2,280 7.3 -19.5°
Maximum altitude 08:43:01 28° 324° (NW) 1,486 6.9 -19.4°
Drops below altitude 10° 08:47:52 10° 22° (NNE) 2,478 8.8 -19.3°
Sets 08:50:49 0° 34° (NE) 3,466 9.6 -19.2°
